Temperature
16 16 16 16 16 17 16 16 16 16 16 15 15 15 15 15 15 15 15 15 15 14 14 14 14 14 14 13 13 13 13 13 12 12 12 12 12 12 12 12 12 12 12
16 16 16 16 16 17 17 16 16 16 16 16 16 16 15 15 15 15 15 15 15 14 14 14 14 14 13 13 13 13 12 12 12 11 11 11 12 12 12 12 12 12 12
16 16 16 16 16 16 17 17 16 16 16 16 16 15 15 15 15 15 15 15 14 14 14 14 14 13 13 13 13 13 12 12 11 11 11 11 12 12 11 11 11 11 11
15 15 15 15 16 16 16 16 16 16 16 16 15 15 15 15 15 15 14 14 14 14 14 13 13 13 13 13 13 12 12 11 11 11 10 10 10 10 10 10 10 10 10
14 14 15 15 16 16 16 16 16 16 15 15 15 15 15 14 14 14 14 14 13 13 13 13 13 12 12 12 12 12 12 11 11 10 10 10 9 9 9 9 9 9 9
14 14 14 15 15 15 15 15 15 15 15 15 14 14 14 14 13 13 13 13 12 12 12 12 12 12 11 11 11 11 11 10 10 10 9 9 9 9 9 9 9 9 9
14 14 13 14 15 15 15 14 14 14 14 14 14 13 13 13 13 12 12 12 12 11 11 11 11 10 10 10 10 10 10 10 9 9 9 9 8 8 8 8 8 8 8
13 13 12 13 14 14 14 13 13 13 13 13 13 12 12 12 12 11 11 11 11 10 10 10 10 9 9 9 9 9 9 9 9 9 9 8 8 8 8 7 7 7 7
11 12 12 11 12 13 12 12 12 12 12 12 12 11 11 11 11 10 10 10 9 9 9 9 9 9 9 9 8 8 8 8 8 8 8 8 8 8 7 7 7 6 6
10 10 10 10 10 11 11 11 11 11 11 11 11 10 10 10 10 9 9 8 8 8 8 8 8 8 8 8 8 8 8 8 8 7 7 7 7 7 7 7 6 6 5
9 9 9 8 9 10 10 10 10 10 10 10 10 9 9 9 8 8 7 7 7 7 7 7 7 7 7 7 7 7 7 7 7 7 7 7 7 7 7 6 6 5 5
9 8 7 8 9 9 10 10 10 10 9 9 9 8 8 7 7 7 6 6 6 6 6 6 6 6 6 6 6 6 6 6 6 6 6 6 6 6 6 5 5 5 5
9 8 8 8 9 9 10 10 9 9 9 8 8 7 7 6 6 5 5 5 5 5 5 5 5 5 5 5 5 5 5 5 5 5 5 5 5 5 5 4 4 4 4
9 8 8 8 9 9 9 9 9 9 8 8 7 6 6 5 5 4 4 4 4 4 4 4 4 5 5 5 5 5 5 5 5 4 4 4 4 4 4 4 3 3 3
9 9 9 9 9 9 9 9 9 8 8 7 6 5 4 4 4 3 3 3 3 3 3 3 4 4 4 4 4 4 4 4 4 4 3 3 3 3 3 3 2 2 2
9 9 9 9 10 10 9 9 8 8 7 6 5 4 4 3 3 2 2 2 2 2 2 2 2 3 3 3 3 3 3 3 3 3 2 2 2 2 2 1 1 1 1
9 9 10 10 10 10 10 9 8 7 6 5 4 3 2 2 1 1 1 1 1 1 1 2 2 2 2 2 2 2 2 2 2 2 2 1 1 1 1 0 0 0 -0
9 10 10 10 10 10 9 9 8 7 6 5 3 2 2 1 1 0 0 0 0 1 1 1 1 1 2 2 2 2 2 2 2 1 1 1 0 0 -0 -0 -1 -1 -1
9 9 10 10 10 10 9 8 7 6 5 4 3 2 1 1 0 0 0 0 0 0 1 1 1 1 1 1 1 1 1 1 1 1 0 -0 -1 -1 -1 -1 -2 -2 -2
9 9 10 10 10 9 9 8 7 6 5 4 3 2 1 1 0 0 0 0 0 0 0 1 1 1 1 1 1 1 1 0 0 -0 -0 -1 -1 -1 -2 -2 -3 -3 -3
9 9 9 9 9 9 8 7 7 6 5 4 3 2 1 1 1 0 0 0 0 0 0 0 1 1 1 1 1 0 0 -0 -0 -1 -1 -1 -1 -2 -2 -3 -3 -3 -3
8 9 9 9 8 8 7 7 6 5 4 3 3 2 1 1 1 0 0 0 0 0 0 0 1 1 1 0 0 0 -0 -0 -1 -1 -1 -1 -2 -2 -2 -3 -3 -3 -3
8 8 8 8 7 7 7 6 5 4 4 3 3 2 2 1 1 1 0 0 0 0 1 1 1 1 1 0 0 0 -0 -0 -1 -1 -1 -2 -2 -2 -2 -3 -3 -3 -4
7 7 7 7 7 6 6 5 4 4 4 3 3 2 2 1 1 1 0 1 1 1 1 1 1 1 1 0 0 0 -0 -1 -1 -1 -1 -2 -2 -2 -3 -3 -3 -3 -4
6 6 6 6 6 5 5 4 4 4 3 3 2 2 2 2 1 1 1 1 1 1 1 1 0 0 1 0 0 -0 -0 -1 -1 -1 -2 -2 -2 -3 -3 -3 -3 -3 -4
6 6 6 5 5 5 4 4 4 3 3 3 2 2 2 2 1 1 1 1 1 1 1 1 0 0 0 -0 -0 -0 -1 -1 -2 -2 -2 -2 -3 -3 -3 -3 -4 -4 -4
Wind_Speed
9 4 3 3 4 5 7 9 9 9 8 7 6 6 6 6 5 5 6 6 7 8 9 8 8 8 8 9 9 9 9 8 7 6 8 10 11 12 10 9 9 10 11
12 7 5 4 5 5 6 7 8 8 8 6 5 4 4 4 4 3 3 3 4 5 6 7 7 7 7 9 10 9 7 6 6 6 6 7 8 9 8 8 7 9 8
14 10 7 6 5 6 6 6 6 6 6 6 5 4 3 3 4 4 3 2 3 4 5 6 6 6 7 8 9 9 11 9 8 8 7 7 6 5 4 6 6 7 6
13 11 9 8 7 6 5 5 6 5 5 6 6 7 5 5 4 2 2 1 1 2 3 4 6 6 6 8 9 9 9 10 9 8 8 10 8 6 6 5 5 5 7
15 13 12 10 8 7 6 6 6 6 5 5 5 5 4 3 2 2 2 2 1 1 2 3 4 5 5 7 8 8 8 8 9 8 7 8 8 9 8 8 7 6 6
16 15 11 9 9 9 8 7 7 6 5 4 4 4 4 4 3 3 3 2 2 1 2 3 3 4 4 5 6 7 8 8 9 8 8 7 7 7 7 8 8 7 6
13 13 13 13 12 11 10 9 9 7 6 5 4 3 3 3 3 3 3 3 2 2 2 3 3 4 4 5 5 6 6 6 7 7 6 6 5 5 5 7 7 6 5
10 11 13 13 13 12 11 10 9 8 6 5 4 3 3 2 1 1 2 2 2 2 3 3 3 4 4 4 4 4 4 4 4 4 3 3 2 3 3 4 4 5 5
8 10 11 12 12 12 12 11 10 8 7 5 4 3 2 1 1 1 1 1 1 2 2 2 2 2 3 3 3 2 2 2 2 2 2 1 2 2 2 2 2 4 5
6 8 10 12 12 11 10 10 9 8 7 5 4 2 2 1 1 1 1 1 0 0 1 1 1 2 3 3 2 2 2 3 3 3 4 4 3 3 3 2 2 1 3
4 7 9 11 11 11 10 9 8 7 6 5 4 3 2 2 2 1 1 1 0 0 1 1 1 2 3 3 3 3 4 4 5 5 5 5 5 4 4 3 2 2 1
4 7 9 11 11 11 10 9 8 7 6 5 4 3 3 3 2 2 1 1 1 1 1 2 2 3 3 3 4 4 5 5 6 5 6 6 4 5 4 3 3 2 2
5 8 10 11 11 11 10 9 8 7 6 5 5 4 4 3 3 2 2 2 2 2 2 3 3 3 3 4 4 5 6 6 6 6 6 6 5 5 4 4 4 3 2
7 9 11 11 11 10 9 9 8 7 6 6 5 5 4 4 3 3 3 3 3 3 3 4 4 4 4 4 5 5 6 7 7 7 7 6 6 6 5 4 5 4 3
10 12 12 12 12 11 10 9 8 8 7 7 6 5 4 4 4 4 3 3 3 3 4 4 4 4 4 4 4 5 5 6 6 6 7 8 9 9 7 5 5 4 3
12 13 13 13 13 13 12 11 10 9 8 7 7 6 6 5 5 5 4 4 4 4 4 4 4 5 4 6 6 5 5 5 5 5 5 6 7 8 9 10 9 7 4
12 13 15 15 14 14 13 12 11 10 9 8 7 7 7 6 6 5 5 5 5 5 5 5 5 5 7 8 7 7 5 5 5 4 4 3 4 5 4 5 6 7 8
12 12 13 13 13 12 12 11 11 10 10 9 8 7 7 7 6 6 6 6 5 5 5 5 4 5 6 7 7 7 5 5 4 3 3 2 2 3 3 3 3 3 3
11 10 10 11 11 13 13 12 12 11 10 9 9 8 8 8 8 7 7 6 5 5 4 4 3 3 3 5 6 5 3 3 2 1 1 1 1 2 1 1 2 1 1
6 5 6 9 11 12 13 13 12 12 11 10 9 8 8 8 8 7 7 5 5 5 4 3 2 2 2 3 5 4 2 1 1 1 1 1 3 3 1 2 3 3 2
1 3 7 8 10 12 13 13 12 12 10 9 9 8 8 8 8 7 6 6 5 5 4 4 4 4 3 4 5 5 3 2 2 2 2 1 3 4 3 3 3 3 4
1 3 5 6 8 11 13 12 11 10 10 10 9 9 8 8 7 8 7 7 6 6 6 5 6 5 5 6 6 7 6 4 3 3 3 2 3 4 4 4 3 3 3
1 2 5 6 8 10 11 11 10 11 11 11 10 9 9 8 8 8 8 7 7 6 6 6 6 6 5 6 8 8 8 7 5 4 4 4 5 4 4 4 4 4 4
2 3 5 7 8 9 10 9 10 12 12 11 10 10 10 9 9 7 7 7 8 7 7 7 6 5 5 6 6 6 6 6 6 5 5 6 6 5 5 5 4 4 4
3 4 6 6 8 9 9 9 10 12 12 11 10 10 9 9 9 8 8 9 9 9 8 7 6 6 6 7 9 7 6 5 5 4 4 5 5 5 5 5 5 5 5
3 5 6 7 7 8 9 10 11 12 12 11 10 9 9 8 8 8 8 12 12 12 14 12 8 7 8 6 9 11 10 9 8 7 6 6 6 6 5 5 5 5 5
Wind_Direction
233 203 189 192 192 197 199 198 196 197 196 196 201 208 216 218 220 225 234 239 242 242 241 248 254 252 252 256 257 256 259 258 259 267 274 269 261 259 259 259 262 262 261
223 206 193 189 192 189 192 192 191 189 192 196 195 200 202 212 215 208 214 232 245 250 249 251 255 253 254 257 258 256 256 257 241 250 276 281 274 249 245 250 254 264 264
226 219 212 200 191 188 186 181 179 178 183 184 176 167 175 185 193 200 207 238 261 258 255 258 261 261 258 260 261 257 254 259 253 239 249 269 274 293 245 244 254 264 269
231 223 214 208 196 184 172 169 166 164 170 179 188 196 204 212 208 205 211 236 263 272 274 271 269 267 263 263 265 263 260 260 261 251 242 251 271 275 281 256 258 268 273
232 226 216 202 185 171 165 160 155 150 154 164 176 192 203 206 193 203 220 231 236 274 298 291 282 276 273 271 271 269 263 259 260 259 253 249 251 251 261 275 276 268 269
234 228 213 189 173 166 161 158 151 141 141 146 158 178 186 192 201 217 231 240 244 260 310 310 295 289 285 281 278 273 267 262 260 260 256 254 253 251 251 264 272 275 281
239 227 206 190 178 171 164 160 155 146 142 141 142 147 165 189 210 225 238 251 256 265 307 313 304 298 294 289 285 277 275 273 269 265 264 261 264 271 266 269 277 277 279
237 224 208 195 182 173 167 163 157 149 144 140 135 132 144 175 196 227 250 260 273 289 308 308 307 307 305 299 291 283 283 286 283 284 281 274 281 282 269 267 272 275 270
237 221 202 192 180 172 170 164 157 151 147 144 142 140 146 165 184 216 245 260 277 294 303 318 323 333 335 327 311 305 317 325 342 340 335 334 359 359 341 309 273 266 271
236 210 192 183 175 168 163 161 158 152 149 149 146 146 149 151 171 199 214 248 287 288 294 353 5 14 18 13 24 37 34 57 49 41 51 49 37 36 30 21 6 307 271
225 198 183 175 168 161 161 159 157 155 155 155 153 159 156 155 166 170 164 171 148 102 69 57 54 49 46 46 63 68 67 74 68 59 62 58 49 50 41 40 41 30 315
200 185 176 170 168 166 166 164 163 164 162 159 162 163 162 170 179 170 160 157 137 99 87 86 78 68 62 63 75 79 74 76 73 67 66 60 57 57 48 45 46 38 7
187 181 180 180 178 174 173 171 170 167 164 166 172 174 177 181 183 171 158 148 131 112 99 95 89 83 80 80 82 88 85 80 76 69 67 62 60 59 52 48 43 31 20
203 195 192 191 186 182 179 177 175 171 171 174 180 184 182 178 170 160 153 142 131 121 107 98 94 93 91 90 92 95 94 87 77 69 63 56 54 53 49 44 36 27 29
221 209 202 197 192 188 185 182 178 176 176 179 183 181 173 166 162 157 149 137 127 118 113 109 103 101 96 94 103 102 101 97 88 75 65 57 51 49 49 43 31 23 22
234 220 209 202 199 195 189 184 181 178 178 182 182 174 173 170 167 160 151 142 131 119 113 111 108 100 93 100 100 107 106 98 94 85 70 62 52 50 54 52 45 36 30
240 224 214 207 203 197 189 185 180 174 179 183 179 177 178 175 169 161 157 151 138 128 121 114 110 105 103 104 102 98 100 96 87 80 73 65 56 45 46 54 53 52 49
245 231 219 209 200 189 182 176 172 175 179 182 182 181 180 176 168 165 161 152 144 140 131 125 122 117 111 110 110 107 98 96 87 76 67 62 48 39 16 28 34 38 44
253 240 220 203 187 180 174 170 173 177 181 185 184 182 180 176 172 171 164 156 151 143 140 136 132 127 123 130 135 130 124 114 107 91 51 5 12 44 358 355 344 335 35
262 229 195 180 176 173 169 171 176 180 186 186 183 179 179 178 176 170 162 159 157 153 153 147 151 164 178 166 167 168 168 163 177 198 238 322 330 341 307 304 309 315 329
284 175 168 172 172 166 168 175 179 186 182 175 172 174 177 177 171 164 162 159 162 164 174 181 198 213 222 210 204 203 218 223 233 248 260 272 311 315 310 292 295 305 305
73 153 160 160 161 167 172 177 182 177 169 168 171 174 175 172 170 168 168 172 177 183 194 207 217 220 223 229 224 224 228 234 245 255 260 269 289 301 302 291 297 286 271
198 169 164 158 166 176 181 182 177 168 167 171 177 178 177 177 178 181 182 184 191 201 207 213 221 219 215 220 228 233 233 230 240 254 261 271 277 283 279 275 283 270 265
210 184 176 177 181 186 190 185 172 170 173 178 181 181 183 185 187 191 195 198 200 206 211 215 220 220 217 217 215 219 227 232 240 247 245 254 260 264 271 269 257 256 264
217 198 200 199 195 190 193 185 176 175 181 184 185 186 190 192 196 202 207 209 215 215 212 215 218 217 222 219 211 211 216 223 232 239 244 247 250 254 253 252 254 253 251
230 213 213 212 203 195 197 191 185 184 186 189 191 192 194 197 200 204 215 225 226 228 231 233 230 230 233 220 215 220 227 232 234 238 247 251 253 256 259 259 257 254 252
Height
1528 1529 1531 1533 1535 1537 1540 1542 1544 1547 1549 1550 1552 1553 1554 1556 1557 1557 1558 1558 1559 1559 1559 1559 1560 1559 1559 1559 1559 1558 1557 1556 1556 1554 1552 1551 1550 1549 1548 1547 1547 1546 1545
1523 1525 1528 1530 1532 1534 1537 1539 1541 1543 1546 1548 1549 1550 1551 1552 1553 1554 1554 1554 1555 1555 1555 1555 1555 1554 1554 1554 1553 1553 1552 1551 1551 1550 1549 1547 1546 1543 1542 1542 1542 1541 1541
1519 1522 1524 1526 1528 1531 1533 1535 1538 1540 1542 1544 1546 1547 1548 1548 1549 1549 1549 1550 1550 1550 1550 1550 1549 1549 1548 1548 1548 1547 1546 1545 1545 1545 1545 1543 1540 1540 1538 1537 1537 1537 1536
1515 1517 1520 1522 1525 1527 1529 1531 1534 1536 1539 1540 1542 1543 1544 1544 1545 1545 1545 1545 1545 1545 1544 1544 1544 1543 1543 1542 1542 1541 1540 1539 1539 1539 1538 1538 1537 1536 1533 1533 1532 1531 1531
1511 1513 1515 1518 1521 1523 1525 1528 1530 1532 1534 1536 1538 1539 1540 1540 1540 1540 1540 1540 1540 1539 1539 1538 1538 1537 1536 1536 1535 1534 1534 1533 1532 1532 1532 1532 1531 1530 1529 1527 1528 1527 1526
1506 1508 1511 1513 1516 1519 1521 1524 1526 1528 1530 1532 1533 1534 1535 1536 1536 1536 1535 1535 1534 1534 1533 1533 1532 1531 1530 1530 1529 1528 1527 1527 1526 1526 1526 1526 1526 1525 1524 1523 1522 1522 1521
1501 1503 1505 1506 1510 1513 1516 1519 1522 1524 1526 1528 1529 1530 1531 1531 1531 1531 1531 1530 1529 1529 1528 1527 1526 1525 1525 1524 1523 1522 1521 1521 1520 1520 1520 1520 1519 1520 1519 1519 1517 1517 1516
1495 1497 1499 1501 1504 1508 1512 1515 1518 1520 1522 1524 1525 1526 1526 1527 1526 1526 1526 1525 1524 1524 1523 1522 1521 1520 1519 1518 1518 1517 1516 1516 1515 1515 1514 1514 1514 1514 1514 1514 1513 1512 1511
1491 1492 1494 1496 1499 1503 1507 1511 1514 1516 1518 1520 1521 1522 1522 1522 1522 1521 1521 1520 1520 1519 1518 1517 1516 1515 1514 1514 1513 1512 1511 1511 1510 1510 1510 1510 1509 1509 1509 1509 1509 1509 1508
1487 1488 1489 1492 1495 1499 1504 1508 1511 1513 1515 1516 1517 1518 1518 1517 1517 1517 1516 1516 1515 1515 1514 1513 1512 1511 1510 1509 1509 1508 1507 1507 1506 1506 1506 1505 1505 1505 1504 1504 1504 1504 1504
1484 1485 1486 1489 1492 1497 1501 1505 1508 1510 1511 1512 1513 1513 1513 1513 1513 1512 1512 1512 1511 1511 1510 1509 1508 1508 1507 1506 1505 1504 1504 1504 1503 1503 1502 1502 1501 1501 1501 1500 1500 1500 1500
1483 1483 1485 1487 1491 1495 1499 1502 1505 1507 1508 1509 1509 1509 1509 1509 1508 1508 1508 1508 1507 1507 1506 1506 1505 1504 1504 1503 1503 1502 1501 1501 1500 1500 1500 1499 1499 1498 1498 1497 1497 1496 1496
1482 1483 1484 1486 1489 1493 1496 1499 1502 1503 1504 1505 1505 1505 1505 1504 1504 1504 1504 1504 1503 1503 1503 1502 1502 1501 1501 1501 1500 1499 1499 1498 1498 1497 1497 1497 1496 1496 1495 1494 1494 1493 1493
1481 1482 1483 1485 1488 1491 1494 1496 1498 1500 1501 1501 1501 1501 1500 1500 1500 1500 1500 1500 1500 1499 1499 1499 1499 1498 1498 1498 1498 1497 1497 1496 1496 1495 1495 1494 1494 1493 1493 1492 1491 1491 1490
1479 1479 1481 1483 1486 1488 1491 1493 1495 1496 1497 1497 1497 1497 1496 1496 1496 1496 1496 1496 1496 1496 1496 1496 1496 1496 1496 1496 1496 1495 1495 1494 1494 1494 1493 1492 1492 1491 1490 1490 1489 1488 1487
1475 1475 1477 1479 1482 1484 1487 1489 1491 1492 1492 1492 1493 1493 1493 1492 1492 1493 1493 1493 1494 1494 1494 1494 1494 1494 1494 1494 1494 1494 1493 1493 1492 1492 1491 1491 1490 1489 1488 1487 1487 1486 1485
1470 1471 1472 1474 1477 1480 1483 1485 1487 1488 1488 1488 1489 1489 1489 1489 1489 1490 1491 1491 1492 1492 1492 1493 1493 1493 1493 1493 1493 1492 1492 1492 1491 1490 1490 1489 1488 1487 1486 1485 1484 1483 1482
1465 1465 1467 1469 1472 1475 1478 1481 1482 1483 1484 1484 1484 1485 1485 1486 1486 1487 1488 1489 1490 1490 1491 1491 1492 1492 1492 1492 1491 1491 1491 1490 1489 1489 1488 1487 1486 1485 1484 1483 1482 1481 1479
1460 1461 1462 1465 1468 1471 1473 1475 1477 1478 1479 1480 1481 1481 1482 1483 1484 1485 1486 1488 1488 1489 1490 1490 1491 1491 1491 1491 1490 1490 1490 1489 1488 1487 1486 1485 1484 1483 1482 1481 1480 1479 1477
1455 1456 1458 1460 1463 1466 1468 1471 1472 1474 1475 1477 1477 1478 1479 1480 1482 1483 1485 1486 1487 1488 1488 1489 1489 1490 1490 1490 1489 1489 1488 1487 1486 1485 1484 1483 1482 1481 1480 1479 1478 1477 1476
1453 1454 1455 1457 1459 1462 1464 1466 1468 1470 1472 1473 1474 1475 1477 1478 1480 1481 1483 1484 1485 1486 1487 1488 1488 1488 1488 1488 1488 1487 1487 1486 1485 1484 1483 1481 1480 1479 1478 1477 1476 1475 1474
1452 1452 1453 1455 1457 1459 1461 1463 1465 1467 1469 1470 1471 1473 1474 1476 1477 1479 1481 1482 1483 1484 1485 1486 1486 1486 1486 1486 1486 1485 1485 1484 1483 1482 1481 1479 1478 1477 1476 1475 1474 1473 1472
1452 1452 1453 1453 1455 1456 1458 1460 1463 1464 1466 1467 1469 1470 1472 1473 1475 1477 1478 1480 1481 1482 1483 1483 1484 1484 1484 1484 1484 1483 1482 1481 1480 1480 1478 1477 1476 1475 1474 1473 1471 1470 1469
1452 1451 1452 1452 1453 1455 1456 1458 1460 1461 1463 1465 1466 1468 1469 1471 1472 1474 1475 1477 1478 1479 1480 1481 1481 1481 1482 1481 1481 1480 1480 1479 1478 1477 1476 1475 1473 1472 1471 1470 1469 1467 1466
1451 1451 1451 1451 1452 1453 1454 1455 1456 1458 1460 1462 1463 1465 1466 1468 1469 1471 1472 1474 1475 1476 1477 1478 1478 1478 1478 1478 1478 1477 1477 1476 1475 1474 1473 1472 1471 1469 1468 1467 1465 1464 1463
1449 1449 1449 1449 1450 1450 1451 1452 1454 1455 1457 1458 1459 1461 1463 1464 1466 1467 1469 1470 1471 1472 1473 1474 1474 1474 1475 1475 1474 1474 1473 1472 1471 1470 1469 1468 1467 1466 1465 1463 1462 1461 1459